GSAT0211 (GALILEO 14)

Last updated on Wed Oct 15 2025 00:02:33 GMT+0000 (Coordinated Universal Time)

1 41549U 16030A 25286.43073388 -.00000014 00000+0 00000+0 0 9996 2 41549 55.1760 228.4812 0003438 340.2445 19.7275 1.70472911 58462
UTC large
Height (km)
Speed (km/s)
/
Latitude / Longitude
Inclination (degrees)
Orbital Period (minutes)
Azimuth
Elevation
Range (km)
Doppler Factor

Next 0 passes for location: London (51.5072 / 0.1276)

Sorry there are no passes over London.